"read_dt","SO2 (ppb)","flags","PMT voltage (V)","lamp voltage (V)","lamp intensity (Hz)","internal temp (C)","react chamber temp (C)","sample flow (l/min)","pres (mmHg)","SO2 bkg (ppb)","SO2 coefficient"
2013-09-21 00:00:00,9275E-5,5C000000,-0724,0948,11198,025.9,045.3,0.397,739.5,01.18,0.508
2013-09-21 00:01:00,3171E-5,5C000000,-0724,0947,11123,025.9,045.3,0.397,739.5,01.18,0.508
2013-09-21 00:02:00,1038E-4,5C000000,-0724,0948,11112,025.9,045.3,0.397,739.5,01.18,0.508
2013-09-21 00:03:00,1618E-4,5C000000,-0724,0947,11114,025.9,045.3,0.397,739.5,01.18,0.508
2013-09-21 00:04:00,5790E-5,5C000000,-0724,0947,11081,025.9,045.3,0.397,739.5,01.18,0.508
2013-09-21 00:05:00,1257E-4,5C000000,-0724,0947,11016,025.9,045.3,0.397,739.5,01.18,0.508
2013-09-21 00:06:00,2048E-4,5C000000,-0724,0949,11124,025.9,045.3,0.397,739.5,01.18,0.508
2013-09-21 00:07:00,2042E-4,5C000000,-0724,0947,11105,025.9,045.3,0.397,739.5,01.18,0.508
2013-09-21 00:08:00,5033E-5,5C000000,-0724,0947,11008,025.9,045.3,0.397,739.5,01.18,0.508
2013-09-21 00:09:00,1327E-4,5C000000,-0724,0947,10958,025.9,045.3,0.397,739.5,01.18,0.508
2013-09-21 00:10:00,1677E-4,5C000000,-0724,0947,10999,025.9,045.3,0.397,739.5,01.18,0.508
2013-09-21 00:11:00,9732E-5,5C000000,-0724,0947,10753,026.0,045.3,0.397,739.5,01.18,0.508
2013-09-21 00:12:00,5494E-5,5C000000,-0724,0947,10875,026.0,045.3,0.397,739.5,01.18,0.508
2013-09-21 00:13:00,6170E-5,5C000000,-0724,0947,11145,026.0,045.3,0.397,739.5,01.18,0.508
2013-09-21 00:14:00,2274E-4,5C000000,-0724,0948,11037,025.9,045.3,0.397,739.5,01.18,0.508
2013-09-21 00:15:00,1768E-4,5C000000,-0724,0949,11079,026.0,045.3,0.397,739.5,01.18,0.508
2013-09-21 00:16:00,1260E-4,5C000000,-0724,0947,11034,026.0,045.3,0.397,739.5,01.18,0.508
2013-09-21 00:17:00,1438E-4,5C000000,-0724,0948,11128,026.0,045.3,0.397,739.5,01.18,0.508
2013-09-21 00:18:00,8127E-5,5C000000,-0724,0948,11031,025.9,045.3,0.397,739.5,01.18,0.508
2013-09-21 00:19:00,1131E-4,5C000000,-0724,0947,11026,026.0,045.3,0.397,739.4,01.18,0.508
2013-09-21 00:20:00,1069E-4,5C000000,-0724,0948,10885,026.0,045.3,0.397,739.5,01.18,0.508
2013-09-21 00:21:00,1185E-4,5C000000,-0724,0947,11040,026.0,045.3,0.397,739.5,01.18,0.508
2013-09-21 00:22:00,1435E-4,5C000000,-0724,0948,11074,026.0,045.3,0.397,739.4,01.18,0.508
2013-09-21 00:23:00,7801E-5,5C000000,-0724,0948,10989,026.0,045.3,0.397,739.4,01.18,0.508
2013-09-21 00:24:00,5957E-5,5C000000,-0724,0947,11026,026.0,045.3,0.397,739.5,01.18,0.508
2013-09-21 00:25:00,1188E-4,5C000000,-0724,0947,11126,026.0,045.3,0.397,739.5,01.18,0.508
2013-09-21 00:26:00,1012E-4,5C000000,-0724,0948,11151,026.0,045.3,0.397,739.4,01.18,0.508
2013-09-21 00:27:00,9557E-5,5C000000,-0724,0948,11133,026.0,045.3,0.397,739.4,01.18,0.508
2013-09-21 00:28:00,4274E-5,5C000000,-0724,0948,11002,026.0,045.3,0.397,739.4,01.18,0.508
2013-09-21 00:29:00,6170E-5,5C000000,-0724,0947,10891,026.0,045.3,0.397,739.5,01.18,0.508
2013-09-21 00:30:00,9436E-5,5C000000,-0724,0948,11123,026.0,045.3,0.397,739.5,01.18,0.508
2013-09-21 00:31:00,1412E-4,5C000000,-0724,0948,10981,026.0,045.3,0.397,739.5,01.18,0.508
2013-09-21 00:32:00,1061E-4,5C000000,-0724,0948,11026,026.0,045.3,0.397,739.5,01.18,0.508
2013-09-21 00:33:00,5169E-5,5C000000,-0724,0947,10977,026.0,045.3,0.397,739.5,01.18,0.508
2013-09-21 00:34:00,8100E-5,5C000000,-0724,0947,11178,026.0,045.3,0.397,739.6,01.18,0.508
2013-09-21 00:35:00,5448E-5,5C000000,-0724,0948,10817,026.0,045.3,0.397,739.6,01.18,0.508
2013-09-21 00:36:00,1044E-4,5C000000,-0724,0947,10892,026.0,045.3,0.397,739.6,01.18,0.508
2013-09-21 00:37:00,9803E-5,5C000000,-0724,0948,11114,026.0,045.3,0.397,739.5,01.18,0.508
2013-09-21 00:38:00,1741E-4,5C000000,-0724,0947,10947,026.0,045.3,0.397,739.5,01.18,0.508
2013-09-21 00:39:00,5849E-5,5C000000,-0724,0948,11024,026.0,045.3,0.397,739.5,01.18,0.508
2013-09-21 00:40:00,1137E-4,5C000000,-0724,0947,11076,026.0,045.3,0.397,739.5,01.18,0.508
2013-09-21 00:41:00,2607E-4,5C000000,-0724,0947,11146,026.0,045.3,0.397,739.5,01.18,0.508
2013-09-21 00:42:00,6952E-5,5C000000,-0724,0947,11020,026.0,045.3,0.397,739.5,01.18,0.508
2013-09-21 00:43:00,2544E-5,5C000000,-0724,0947,11011,026.0,045.3,0.397,739.5,01.18,0.508
2013-09-21 00:44:00,1320E-4,5C000000,-0724,0949,11059,026.0,045.3,0.396,739.5,01.18,0.508
2013-09-21 00:45:00,4328E-5,5C000000,-0724,0947,11116,026.1,045.3,0.397,739.5,01.18,0.508
2013-09-21 00:46:00,1219E-4,5C000000,-0724,0948,11027,026.1,045.3,0.397,739.5,01.18,0.508
2013-09-21 00:47:00,1232E-4,5C000000,-0724,0948,11084,026.0,045.3,0.397,739.5,01.18,0.508
2013-09-21 00:48:00,4226E-5,5C000000,-0724,0948,11021,026.1,045.3,0.397,739.5,01.18,0.508
2013-09-21 00:49:00,1184E-4,5C000000,-0724,0947,10859,026.1,045.3,0.397,739.5,01.18,0.508
2013-09-21 00:50:00,-1608E-5,5C000000,-0724,0948,10872,026.1,045.3,0.397,739.5,01.18,0.508
2013-09-21 00:51:00,1823E-4,5C000000,-0724,0948,10860,026.1,045.3,0.397,739.5,01.18,0.508
2013-09-21 00:52:00,1206E-4,5C000000,-0724,0948,11048,026.1,045.3,0.397,739.5,01.18,0.508
2013-09-21 00:53:00,1904E-4,5C000000,-0724,0948,11155,026.1,045.3,0.397,739.5,01.18,0.508
2013-09-21 00:54:00,5327E-5,5C000000,-0724,0949,11077,026.1,045.3,0.397,739.5,01.18,0.508
2013-09-21 00:55:00,1315E-5,5C000000,-0724,0948,11115,026.1,045.3,0.396,739.5,01.18,0.508
2013-09-21 00:56:00,2009E-4,5C000000,-0724,0948,10857,026.1,045.3,0.397,739.5,01.18,0.508
2013-09-21 00:57:00,1189E-4,5C000000,-0724,0948,11136,026.1,045.3,0.396,739.5,01.18,0.508
2013-09-21 00:58:00,5882E-5,5C000000,-0724,0949,11049,026.1,045.3,0.397,739.4,01.18,0.508
2013-09-21 00:59:00,1259E-4,5C000000,-0724,0948,11007,026.1,045.3,0.396,739.5,01.18,0.508
2013-09-21 01:00:00,1697E-4,5C000000,-0724,0948,11058,026.1,045.3,0.397,739.5,01.18,0.508
2013-09-21 01:01:00,5720E-5,5C000000,-0724,0948,11119,026.1,045.3,0.396,739.5,01.18,0.508
2013-09-21 01:02:00,1312E-4,5C000000,-0724,0948,11092,026.1,045.3,0.397,739.4,01.18,0.508
2013-09-21 01:03:00,9602E-5,5C000000,-0724,0949,11088,026.1,045.3,0.396,739.4,01.18,0.508
2013-09-21 01:04:00,6548E-5,5C000000,-0724,0948,11158,026.2,045.3,0.397,739.4,01.18,0.508
2013-09-21 01:05:00,4057E-5,5C000000,-0724,0948,10983,026.2,045.3,0.397,739.4,01.18,0.508
2013-09-21 01:06:00,7346E-5,5C000000,-0724,0948,11151,026.2,045.3,0.396,739.4,01.18,0.508
2013-09-21 01:07:00,1318E-4,5C000000,-0724,0948,11096,026.2,045.3,0.397,739.4,01.18,0.508
2013-09-21 01:08:00,1041E-4,5C000000,-0724,0948,11140,026.1,045.3,0.396,739.4,01.18,0.508
2013-09-21 01:09:00,3256E-5,5C000000,-0724,0948,11036,026.2,045.3,0.397,739.4,01.18,0.508
2013-09-21 01:10:00,1159E-4,5C000000,-0724,0948,10813,026.2,045.3,0.396,739.4,01.18,0.508
2013-09-21 01:11:00,1378E-4,5C000000,-0724,0948,11144,026.2,045.3,0.397,739.4,01.18,0.508
2013-09-21 01:12:00,1256E-4,5C000000,-0724,0948,10988,026.2,045.3,0.396,739.4,01.18,0.508
2013-09-21 01:13:00,1172E-4,5C000000,-0724,0948,10953,026.2,045.3,0.397,739.4,01.18,0.508
2013-09-21 01:14:00,2124E-4,5C000000,-0724,0947,11111,026.2,045.3,0.396,739.4,01.18,0.508
2013-09-21 01:15:00,1411E-4,5C000000,-0724,0949,11008,026.2,045.3,0.396,739.3,01.18,0.508
2013-09-21 01:16:00,1048E-4,5C000000,-0724,0948,10942,026.2,045.3,0.396,739.3,01.18,0.508
2013-09-21 01:17:00,5452E-5,5C000000,-0724,0947,11022,026.2,045.3,0.396,739.3,01.18,0.508
2013-09-21 01:18:00,1386E-4,5C000000,-0724,0948,11095,026.3,045.3,0.397,739.3,01.18,0.508
2013-09-21 01:19:00,6935E-5,5C000000,-0724,0949,10899,026.3,045.3,0.396,739.2,01.18,0.508
2013-09-21 01:20:00,8025E-5,5C000000,-0724,0948,10996,026.3,045.3,0.397,739.2,01.18,0.508
2013-09-21 01:21:00,1539E-4,5C000000,-0724,0948,11012,026.3,045.3,0.396,739.1,01.18,0.508
2013-09-21 01:22:00,8636E-5,5C000000,-0724,0948,11087,026.3,045.3,0.397,739.1,01.18,0.508
2013-09-21 01:23:00,1402E-4,5C000000,-0724,0948,10830,026.3,045.3,0.396,739.1,01.18,0.508
2013-09-21 01:24:00,6110E-5,5C000000,-0724,0948,11105,026.3,045.3,0.396,739.1,01.18,0.508
2013-09-21 01:25:00,7873E-5,5C000000,-0724,0948,11126,026.3,045.3,0.396,739.1,01.18,0.508
2013-09-21 01:26:00,6370E-5,5C000000,-0724,0948,11059,026.3,045.3,0.396,739.1,01.18,0.508
2013-09-21 01:27:00,1039E-4,5C000000,-0724,0948,11041,026.3,045.3,0.397,739.1,01.18,0.508
2013-09-21 01:28:00,1525E-4,5C000000,-0724,0948,11109,026.3,045.3,0.396,739.1,01.18,0.508
2013-09-21 01:29:00,7364E-5,5C000000,-0724,0949,10958,026.3,045.3,0.396,739.0,01.18,0.508
2013-09-21 01:30:00,1220E-4,5C000000,-0724,0949,11074,026.4,045.3,0.396,739.0,01.18,0.508
2013-09-21 01:31:00,1403E-4,5C000000,-0724,0949,11143,026.4,045.3,0.396,739.0,01.18,0.508
2013-09-21 01:32:00,9373E-5,5C000000,-0724,0948,10996,026.3,045.3,0.396,739.0,01.18,0.508
2013-09-21 01:33:00,2066E-4,5C000000,-0724,0948,11017,026.4,045.3,0.396,739.1,01.18,0.508
2013-09-21 01:34:00,1375E-4,5C000000,-0724,0948,11166,026.4,045.3,0.396,739.1,01.18,0.508
2013-09-21 01:35:00,1098E-4,5C000000,-0724,0948,11025,026.4,045.3,0.396,739.1,01.18,0.508
2013-09-21 01:36:00,1310E-4,5C000000,-0724,0948,11052,026.4,045.3,0.396,739.2,01.18,0.508
2013-09-21 01:37:00,1505E-4,5C000000,-0724,0948,11056,026.4,045.3,0.396,739.2,01.18,0.508
2013-09-21 01:38:00,1435E-4,5C000000,-0724,0948,10980,026.4,045.3,0.396,739.1,01.18,0.508
2013-09-21 01:39:00,1173E-4,5C000000,-0724,0948,10992,026.4,045.3,0.396,739.1,01.18,0.508
2013-09-21 01:40:00,1551E-4,5C000000,-0724,0949,10906,026.4,045.3,0.396,739.2,01.18,0.508
2013-09-21 01:41:00,2966E-5,5C000000,-0724,0949,10979,026.4,045.3,0.396,739.1,01.18,0.508
2013-09-21 01:42:00,6268E-5,5C000000,-0724,0949,10944,026.4,045.3,0.396,739.2,01.18,0.508
2013-09-21 01:43:00,4371E-6,5C000000,-0724,0949,11105,026.4,045.3,0.396,739.3,01.18,0.508
2013-09-21 01:44:00,5473E-5,5C000000,-0724,0949,11102,026.4,045.3,0.396,739.2,01.18,0.508
2013-09-21 01:45:00,1456E-4,5C000000,-0724,0948,11060,026.4,045.3,0.396,739.3,01.18,0.508
2013-09-21 01:46:00,7520E-5,5C000000,-0724,0949,10999,026.5,045.3,0.396,739.3,01.18,0.508
2013-09-21 01:47:00,1593E-5,5C000000,-0724,0948,11039,026.5,045.3,0.396,739.4,01.18,0.508
2013-09-21 01:48:00,5924E-5,5C000000,-0724,0949,11099,026.5,045.3,0.396,739.4,01.18,0.508
2013-09-21 01:49:00,5409E-5,5C000000,-0724,0949,11024,026.5,045.3,0.396,739.4,01.18,0.508
2013-09-21 01:50:00,6787E-5,5C000000,-0724,0949,10921,026.5,045.3,0.396,739.4,01.18,0.508
2013-09-21 01:51:00,8634E-5,5C000000,-0724,0949,10935,026.5,045.3,0.396,739.4,01.18,0.508
2013-09-21 01:52:00,1278E-4,5C000000,-0724,0948,11032,026.5,045.3,0.396,739.5,01.18,0.508
2013-09-21 01:53:00,1178E-4,5C000000,-0724,0950,11050,026.5,045.3,0.396,739.4,01.18,0.508
2013-09-21 01:54:00,1127E-4,5C000000,-0724,0949,11023,026.5,045.3,0.396,739.5,01.18,0.508
2013-09-21 01:55:00,1861E-4,5C000000,-0724,0949,10920,026.5,045.3,0.396,739.5,01.18,0.508
2013-09-21 01:56:00,8031E-5,5C000000,-0724,0950,10999,026.5,045.3,0.396,739.5,01.18,0.508
2013-09-21 01:57:00,9672E-5,5C000000,-0724,0948,11063,026.5,045.3,0.396,739.5,01.18,0.508
2013-09-21 01:58:00,7621E-5,5C000000,-0724,0949,11142,026.5,045.3,0.396,739.5,01.18,0.508
2013-09-21 01:59:00,1295E-4,5C000000,-0724,0949,11086,026.5,045.3,0.396,739.5,01.18,0.508
2013-09-21 02:00:00,1171E-4,5C000000,-0724,0949,11179,026.5,045.3,0.396,739.5,01.18,0.508
2013-09-21 02:01:00,1454E-4,5C000000,-0724,0948,11069,026.6,045.3,0.396,739.5,01.18,0.508
2013-09-21 02:02:00,1559E-4,5C000000,-0724,0948,11032,026.5,045.3,0.395,739.5,01.18,0.508
2013-09-21 02:03:00,7535E-5,5C000000,-0724,0949,10765,026.6,045.3,0.396,739.5,01.18,0.508
2013-09-21 02:04:00,9797E-5,5C000000,-0724,0949,11076,026.6,045.3,0.395,739.5,01.18,0.508
2013-09-21 02:05:00,1281E-4,5C000000,-0724,0949,11049,026.6,045.3,0.396,739.5,01.18,0.508
2013-09-21 02:06:00,1572E-4,5C000000,-0724,0949,11124,026.6,045.3,0.395,739.5,01.18,0.508
2013-09-21 02:07:00,1063E-4,5C000000,-0724,0949,11037,026.6,045.3,0.396,739.4,01.18,0.508
2013-09-21 02:08:00,9873E-5,5C000000,-0724,0948,11087,026.6,045.3,0.396,739.4,01.18,0.508
2013-09-21 02:09:00,1283E-4,5C000000,-0724,0949,11196,026.6,045.3,0.396,739.4,01.18,0.508
2013-09-21 02:10:00,1576E-4,5C000000,-0724,0949,11040,026.6,045.3,0.396,739.4,01.18,0.508
2013-09-21 02:11:00,4838E-6,5C000000,-0724,0949,11119,026.6,045.3,0.396,739.4,01.18,0.508
2013-09-21 02:12:00,7936E-5,5C000000,-0724,0949,11025,026.6,045.3,0.396,739.4,01.18,0.508
2013-09-21 02:13:00,2210E-4,5C000000,-0724,0948,11107,026.6,045.3,0.396,739.4,01.18,0.508
2013-09-21 02:14:00,8836E-5,5C000000,-0724,0948,11014,026.6,045.3,0.396,739.4,01.18,0.508
2013-09-21 02:15:00,9440E-5,5C000000,-0724,0948,11085,026.6,045.3,0.396,739.4,01.18,0.508
2013-09-21 02:16:00,1628E-4,5C000000,-0724,0948,11129,026.7,045.3,0.396,739.3,01.18,0.508
2013-09-21 02:17:00,1146E-4,5C000000,-0724,0949,11045,026.6,045.3,0.395,739.3,01.18,0.508
2013-09-21 02:18:00,1308E-4,5C000000,-0724,0948,11080,026.7,045.3,0.396,739.3,01.18,0.508
2013-09-21 02:19:00,1305E-4,5C000000,-0724,0949,11014,026.6,045.3,0.395,739.3,01.18,0.508
2013-09-21 02:20:00,1239E-4,5C000000,-0724,0949,11063,026.7,045.3,0.396,739.3,01.18,0.508
2013-09-21 02:21:00,6545E-5,5C000000,-0724,0949,11131,026.7,045.3,0.395,739.3,01.18,0.508
2013-09-21 02:22:00,7351E-5,5C000000,-0724,0951,10880,026.7,045.3,0.396,739.3,01.18,0.508
2013-09-21 02:23:00,1045E-4,5C000000,-0724,0949,11104,026.7,045.3,0.395,739.3,01.18,0.508
2013-09-21 02:24:00,1348E-4,5C000000,-0724,0949,11138,026.7,045.3,0.396,739.3,01.18,0.508
2013-09-21 02:25:00,1268E-4,5C000000,-0724,0949,11039,026.7,045.3,0.395,739.3,01.18,0.508
2013-09-21 02:26:00,1524E-4,5C000000,-0724,0949,10867,026.7,045.3,0.396,739.3,01.18,0.508
2013-09-21 02:27:00,1601E-4,5C000000,-0724,0949,11011,026.7,045.3,0.395,739.2,01.18,0.508
2013-09-21 02:28:00,7826E-5,5C000000,-0724,0949,10982,026.7,045.3,0.396,739.3,01.18,0.508
2013-09-21 02:29:00,1123E-4,5C000000,-0724,0948,11128,026.7,045.3,0.395,739.3,01.18,0.508
2013-09-21 02:30:00,1433E-4,5C000000,-0724,0950,10985,026.7,045.3,0.395,739.3,01.18,0.508
2013-09-21 02:31:00,1617E-4,5C000000,-0724,0949,11093,026.7,045.3,0.396,739.3,01.18,0.508
2013-09-21 02:32:00,1380E-4,5C000000,-0724,0950,11024,026.8,045.3,0.395,739.3,01.18,0.508
2013-09-21 02:33:00,3370E-5,5C000000,-0724,0949,10971,026.8,045.3,0.396,739.3,01.18,0.508
2013-09-21 02:34:00,7712E-5,5C000000,-0724,0950,11026,026.8,045.3,0.395,739.2,01.18,0.508
2013-09-21 02:35:00,5193E-5,5C000000,-0724,0949,11068,026.8,045.3,0.396,739.2,01.18,0.508
2013-09-21 02:36:00,1339E-4,5C000000,-0724,0949,11013,026.8,045.3,0.395,739.3,01.18,0.508
2013-09-21 02:37:00,1172E-4,5C000000,-0724,0950,11103,026.8,045.3,0.395,739.3,01.18,0.508
2013-09-21 02:38:00,1108E-4,5C000000,-0724,0949,11096,026.8,045.3,0.395,739.3,01.18,0.508
2013-09-21 02:39:00,9950E-5,5C000000,-0724,0948,11050,026.8,045.3,0.395,739.3,01.18,0.508
2013-09-21 02:40:00,1366E-4,5C000000,-0724,0949,11016,026.8,045.3,0.396,739.3,01.18,0.508
2013-09-21 02:41:00,1248E-4,5C000000,-0724,0949,11125,026.8,045.3,0.395,739.3,01.18,0.508
2013-09-21 02:42:00,1128E-4,5C000000,-0724,0949,11099,026.8,045.3,0.396,739.3,01.18,0.508
2013-09-21 02:43:00,1976E-4,5C000000,-0724,0949,11191,026.8,045.3,0.395,739.3,01.18,0.508
2013-09-21 02:44:00,8476E-5,5C000000,-0724,0949,11065,026.8,045.3,0.395,739.3,01.18,0.508
2013-09-21 02:45:00,3593E-5,5C000000,-0724,0949,11087,026.8,045.3,0.395,739.3,01.18,0.508
2013-09-21 02:46:00,1681E-4,5C000000,-0724,0949,11007,026.8,045.3,0.395,739.3,01.18,0.508
2013-09-21 02:47:00,1840E-4,5C000000,-0724,0950,11115,026.8,045.3,0.395,739.3,01.18,0.508
2013-09-21 02:48:00,1462E-4,5C000000,-0724,0949,10851,026.9,045.3,0.395,739.3,01.18,0.508
2013-09-21 02:49:00,6048E-5,5C000000,-0724,0950,11048,026.9,045.3,0.396,739.3,01.18,0.508
2013-09-21 02:50:00,9039E-5,5C000000,-0724,0949,11040,026.9,045.3,0.395,739.3,01.18,0.508
2013-09-21 02:51:00,7422E-5,5C000000,-0724,0949,11064,026.9,045.3,0.395,739.3,01.18,0.508
2013-09-21 02:52:00,2012E-5,5C000000,-0724,0949,10867,026.9,045.3,0.395,739.3,01.18,0.508
2013-09-21 02:53:00,2462E-4,5C000000,-0724,0949,11025,026.9,045.3,0.395,739.3,01.18,0.508
2013-09-21 02:54:00,1022E-4,5C000000,-0724,0950,11003,026.9,045.3,0.395,739.3,01.18,0.508
2013-09-21 02:55:00,6988E-5,5C000000,-0724,0948,11059,026.9,045.3,0.395,739.3,01.18,0.508
2013-09-21 02:56:00,1446E-4,5C000000,-0724,0949,11142,026.9,045.3,0.395,739.3,01.18,0.508
2013-09-21 02:57:00,8998E-5,5C000000,-0724,0949,10940,026.9,045.3,0.395,739.3,01.18,0.508
2013-09-21 02:58:00,1425E-4,5C000000,-0724,0949,10899,026.9,045.3,0.395,739.3,01.18,0.508
2013-09-21 02:59:00,8645E-5,5C000000,-0724,0949,11137,026.9,045.3,0.395,739.3,01.18,0.508
2013-09-21 03:00:00,7811E-5,5C000000,-0724,0950,10970,026.9,045.3,0.396,739.4,01.18,0.508
2013-09-21 03:01:00,1649E-4,5C000000,-0724,0949,11057,027.0,045.3,0.395,739.3,01.18,0.508
2013-09-21 03:02:00,2879E-5,5C000000,-0724,0950,11232,026.9,045.3,0.395,739.4,01.18,0.508
2013-09-21 03:03:00,1409E-4,5C000000,-0724,0949,11091,026.9,045.3,0.395,739.4,01.18,0.508
2013-09-21 03:04:00,6654E-5,5C000000,-0724,0949,10830,027.0,045.3,0.395,739.4,01.18,0.508
2013-09-21 03:05:00,1294E-4,5C000000,-0724,0950,11057,027.0,045.3,0.395,739.4,01.18,0.508
2013-09-21 03:06:00,2141E-4,5C000000,-0724,0949,10956,027.0,045.3,0.395,739.4,01.18,0.508
2013-09-21 03:07:00,1214E-4,5C000000,-0724,0950,10995,027.0,045.3,0.395,739.5,01.18,0.508
2013-09-21 03:08:00,1876E-4,5C000000,-0724,0949,10994,027.0,045.3,0.395,739.4,01.18,0.508
2013-09-21 03:09:00,6791E-5,5C000000,-0724,0949,10994,027.0,045.3,0.395,739.5,01.18,0.508
2013-09-21 03:10:00,1081E-4,5C000000,-0724,0950,11061,027.0,045.3,0.395,739.5,01.18,0.508
2013-09-21 03:11:00,1544E-4,5C000000,-0724,0950,10931,027.0,045.3,0.395,739.5,01.18,0.508
2013-09-21 03:12:00,1796E-4,5C000000,-0724,0949,11030,027.0,045.3,0.395,739.5,01.18,0.508
2013-09-21 03:13:00,3806E-5,5C000000,-0724,0950,10855,027.0,045.3,0.395,739.5,01.18,0.508
2013-09-21 03:14:00,2029E-4,5C000000,-0724,0949,10899,027.0,045.3,0.395,739.4,01.18,0.508
2013-09-21 03:15:00,1268E-4,5C000000,-0724,0949,11103,027.0,045.3,0.395,739.5,01.18,0.508
2013-09-21 03:16:00,1470E-4,5C000000,-0724,0950,11070,027.0,045.3,0.395,739.5,01.18,0.508
2013-09-21 03:17:00,9418E-5,5C000000,-0724,0950,11028,027.0,045.3,0.395,739.5,01.18,0.508
2013-09-21 03:18:00,2229E-4,5C000000,-0724,0950,10915,027.0,045.3,0.395,739.5,01.18,0.508
2013-09-21 03:19:00,8688E-5,5C000000,-0724,0950,10963,027.1,045.3,0.395,739.5,01.18,0.508
2013-09-21 03:20:00,7620E-5,5C000000,-0724,0950,11011,027.1,045.3,0.395,739.5,01.18,0.508
2013-09-21 03:21:00,2935E-5,5C000000,-0724,0949,11120,027.0,045.3,0.395,739.5,01.18,0.508
2013-09-21 03:22:00,1005E-4,5C000000,-0724,0949,11120,027.0,045.3,0.395,739.5,01.18,0.508
2013-09-21 03:23:00,1049E-4,5C000000,-0724,0950,10976,027.1,045.3,0.395,739.5,01.18,0.508
2013-09-21 03:24:00,1858E-4,5C000000,-0724,0949,10810,027.1,045.3,0.395,739.5,01.18,0.508
2013-09-21 03:25:00,6434E-5,5C000000,-0724,0950,11138,027.1,045.3,0.395,739.5,01.18,0.508
2013-09-21 03:26:00,1572E-4,5C000000,-0724,0949,10987,027.1,045.3,0.395,739.5,01.18,0.508
2013-09-21 03:27:00,9067E-5,5C000000,-0724,0949,11019,027.1,045.3,0.395,739.5,01.18,0.508
2013-09-21 03:28:00,1469E-4,5C000000,-0724,0948,10963,027.1,045.3,0.395,739.5,01.18,0.508
2013-09-21 03:29:00,8761E-5,5C000000,-0724,0949,10977,027.1,045.3,0.395,739.5,01.18,0.508
2013-09-21 03:30:00,7757E-5,5C000000,-0724,0949,11038,027.1,045.3,0.395,739.5,01.18,0.508
2013-09-21 03:31:00,1172E-4,5C000000,-0724,0949,11091,027.1,045.3,0.395,739.5,01.18,0.508
2013-09-21 03:32:00,9055E-5,5C000000,-0724,0949,10954,027.1,045.3,0.394,739.4,01.18,0.508
2013-09-21 03:33:00,1721E-4,5C000000,-0724,0950,11058,027.1,045.3,0.395,739.4,01.18,0.508
2013-09-21 03:34:00,9467E-5,5C000000,-0724,0950,11073,027.1,045.3,0.395,739.4,01.18,0.508
2013-09-21 03:35:00,7981E-5,5C000000,-0724,0949,11084,027.1,045.3,0.395,739.4,01.18,0.508
2013-09-21 03:36:00,9323E-5,5C000000,-0724,0950,10937,027.2,045.3,0.395,739.4,01.18,0.508
2013-09-21 03:37:00,8655E-5,5C000000,-0724,0950,10923,027.1,045.3,0.394,739.4,01.18,0.508
2013-09-21 03:38:00,8911E-5,5C000000,-0724,0949,10908,027.1,045.3,0.395,739.4,01.18,0.508
2013-09-21 03:39:00,1650E-4,5C000000,-0724,0950,11110,027.1,045.4,0.394,739.4,01.18,0.508
2013-09-21 03:40:00,1049E-4,5C000000,-0724,0950,11117,027.2,045.4,0.395,739.4,01.18,0.508
2013-09-21 03:41:00,3986E-5,5C000000,-0724,0950,11023,027.2,045.3,0.395,739.3,01.18,0.508
2013-09-21 03:42:00,5968E-5,5C000000,-0724,0950,10986,027.2,045.3,0.394,739.3,01.18,0.508
2013-09-21 03:43:00,1844E-4,5C000000,-0724,0950,10957,027.2,045.3,0.395,739.3,01.18,0.508
2013-09-21 03:44:00,1724E-5,5C000000,-0724,0950,10998,027.2,045.3,0.394,739.3,01.18,0.508
2013-09-21 03:45:00,1009E-4,5C000000,-0724,0950,11094,027.2,045.3,0.395,739.2,01.18,0.508
2013-09-21 03:46:00,2004E-4,5C000000,-0724,0950,10993,027.2,045.3,0.394,739.2,01.18,0.508
2013-09-21 03:47:00,1171E-4,5C000000,-0724,0950,11041,027.2,045.3,0.395,739.2,01.18,0.508
2013-09-21 03:48:00,2574E-5,5C000000,-0724,0950,11089,027.2,045.3,0.395,739.3,01.18,0.508
2013-09-21 03:49:00,1136E-4,5C000000,-0724,0949,11041,027.2,045.3,0.394,739.2,01.18,0.508
2013-09-21 03:50:00,1562E-4,5C000000,-0724,0949,10936,027.2,045.3,0.395,739.2,01.18,0.508
2013-09-21 03:51:00,3187E-5,5C000000,-0724,0950,10931,027.2,045.3,0.394,739.2,01.18,0.508
2013-09-21 03:52:00,1482E-4,5C000000,-0724,0950,10829,027.2,045.3,0.395,739.1,01.18,0.508
2013-09-21 03:53:00,1362E-4,5C000000,-0724,0950,11058,027.2,045.3,0.394,739.3,01.18,0.508
2013-09-21 03:54:00,1216E-4,5C000000,-0724,0949,10989,027.3,045.3,0.394,739.3,01.18,0.508
2013-09-21 03:55:00,5035E-5,5C000000,-0724,0949,11000,027.2,045.3,0.395,739.3,01.18,0.508
2013-09-21 03:56:00,1980E-4,5C000000,-0724,0949,10858,027.3,045.3,0.394,739.2,01.18,0.508
2013-09-21 03:57:00,8685E-5,5C000000,-0724,0949,10881,027.3,045.3,0.395,739.2,01.18,0.508
2013-09-21 03:58:00,1154E-4,5C000000,-0724,0949,10987,027.3,045.3,0.394,739.3,01.18,0.508
2013-09-21 03:59:00,8460E-5,5C000000,-0724,0950,11060,027.3,045.3,0.394,739.2,01.18,0.508
2013-09-21 04:00:00,1005E-4,5C000000,-0724,0949,11023,027.3,045.3,0.395,739.2,01.18,0.508
2013-09-21 04:01:00,5399E-5,5C000000,-0724,0949,10982,027.3,045.3,0.394,739.4,01.18,0.508
2013-09-21 04:02:00,8573E-5,5C000000,-0724,0951,11004,027.3,045.3,0.395,739.3,01.18,0.508
2013-09-21 04:03:00,2244E-5,5C000000,-0724,0950,11108,027.3,045.3,0.394,739.3,01.18,0.508
2013-09-21 04:04:00,1508E-4,5C000000,-0724,0950,10903,027.3,045.3,0.394,739.4,01.18,0.508
2013-09-21 04:05:00,1371E-4,5C000000,-0724,0950,11053,027.3,045.3,0.395,739.4,01.18,0.508
2013-09-21 04:06:00,1559E-4,5C000000,-0724,0949,11032,027.3,045.3,0.394,739.4,01.18,0.508
2013-09-21 04:07:00,5616E-5,5C000000,-0724,0949,10971,027.3,045.3,0.395,739.2,01.18,0.508
2013-09-21 04:08:00,1928E-4,5C000000,-0724,0950,11028,027.3,045.3,0.394,739.4,01.18,0.508
2013-09-21 04:09:00,9361E-5,5C000000,-0724,0950,11033,027.3,045.3,0.394,739.4,01.18,0.508
2013-09-21 04:10:00,2083E-4,5C000000,-0724,0950,11079,027.3,045.3,0.395,739.3,01.18,0.508
2013-09-21 04:11:00,1865E-4,5C000000,-0724,0949,10973,027.4,045.3,0.394,739.4,01.18,0.508
2013-09-21 04:12:00,8867E-5,5C000000,-0724,0950,11161,027.3,045.3,0.394,739.4,01.18,0.508
2013-09-21 04:13:00,2224E-5,5C000000,-0724,0950,10985,027.3,045.3,0.395,739.4,01.18,0.508
2013-09-21 04:14:00,1054E-4,5C000000,-0724,0949,11061,027.3,045.3,0.394,739.4,01.18,0.508
2013-09-21 04:15:00,1398E-4,5C000000,-0724,0950,10929,027.4,045.3,0.394,739.4,01.18,0.508
2013-09-21 04:16:00,8291E-5,5C000000,-0724,0950,11022,027.4,045.3,0.395,739.4,01.18,0.508
2013-09-21 04:17:00,2006E-4,5C000000,-0724,0949,10964,027.4,045.3,0.394,739.5,01.18,0.508
2013-09-21 04:18:00,9158E-5,5C000000,-0724,0950,11092,027.4,045.3,0.394,739.5,01.18,0.508
2013-09-21 04:19:00,9535E-5,5C000000,-0724,0950,11096,027.4,045.3,0.395,739.5,01.18,0.508
2013-09-21 04:20:00,1163E-4,5C000000,-0724,0950,11128,027.4,045.3,0.394,739.5,01.18,0.508